EW5238 Weather Reports


Display with metric or nautical units.
time (UTC)temp
F
wind
direction
speed
MPH
gust
MPH
rain 1hr
in
rain 24hr
in
rain mn
in
humidity
%
barometer
mb
20260510174415 84 190 5.0 10.0 0.00 0.44 0.01 63 1011.6
20260510173911 84 190 4.0 10.0 0.00 0.44 0.01 62 1011.7
20260510173413 84 190 4.0 9.0 0.00 0.44 0.01 61 1011.7
20260510172910 83 190 4.0 9.0 0.00 0.44 0.01 62 1011.8
20260510172413 83 190 4.0 11.0 0.00 0.44 0.01 61 1011.9
20260510171910 83 190 5.0 11.0 0.00 0.44 0.01 60 1011.8
20260510171414 83 190 4.0 11.0 0.00 0.44 0.01 60 1011.9
20260510170908 82 190 3.0 7.0 0.00 0.44 0.01 58 1012.1
20260510170409 82 190 3.0 8.0 0.00 0.44 0.01 56 1012.1
20260510165906 82 190 5.0 9.0 0.00 0.44 0.01 60 1012.2
20260510165405 82 190 4.0 9.0 0.00 0.44 0.01 58 1012.2
20260510164910 82 190 4.0 8.0 0.00 0.44 0.01 57 1012.2
20260510164410 82 190 4.0 8.0 0.00 0.44 0.01 46 1012.3
20260510163904 81 190 3.0 8.0 0.00 0.44 0.01 51 1012.4
20260510163405 81 190 3.0 8.0 0.00 0.44 0.01 52 1012.4
20260510162911 81 190 2.0 6.0 0.00 0.44 0.01 44 1012.4
20260510162404 81 190 3.0 8.0 0.00 0.44 0.01 42 1012.6
20260510161907 81 190 4.0 8.0 0.00 0.44 0.01 35 1012.6
20260510161402 80 190 4.0 8.0 0.00 0.44 0.01 33 1012.6
20260510160905 79 190 4.0 8.0 0.00 0.44 0.01 31 1012.7
20260510160358 79 190 4.0 7.0 0.00 0.44 0.01 26 1012.8
20260510155858 78 190 4.0 7.0 0.00 0.44 0.01 14 1012.8
20260510155631 78 190 4.0 7.0 0.00 0.44 0.01 2 1012.8
20260510155129 78 190 4.0 7.0 0.00 0.44 0.01 1 1012.8
20260510154357 78 190 3.0 6.0 0.00 0.44 0.01 1 1012.8
20260510153900 78 190 2.0 6.0 0.00 0.44 0.01 1 1012.8
20260510153353 77 190 2.0 6.0 0.00 0.44 0.01 1 1012.9
20260510152854 77 190 2.0 7.0 0.00 0.44 0.01 1 1012.9
20260510152627 77 190 2.0 7.0 0.00 0.44 0.01 1 1013.0
20260510151855 77 190 2.0 5.0 0.00 0.44 0.01 1 1013.1
20260510151354 77 190 2.0 5.0 0.00 0.44 0.01 1 1013.1
20260510150855 76 190 2.0 4.0 0.00 0.44 0.01 1 1013.1
20260510150356 77 190 1.0 4.0 0.00 0.44 0.01 1 1013.0
20260510145850 76 190 1.0 4.0 0.00 0.44 0.01 1 1012.9
20260510145350 76 190 1.0 4.0 0.00 0.44 0.01 1 1012.9
20260510144851 76 190 2.0 6.0 0.00 0.44 0.01 1 1012.9
20260510144619 76 190 1.0 6.0 0.00 0.44 0.01 1 1012.9
20260510143856 76 190 1.0 4.0 0.00 0.44 0.01 1 1012.8
20260510143349 76 190 1.0 4.0 0.00 0.44 0.01 1 1012.7
20260510142847 76 190 1.0 4.0 0.00 0.44 0.01 1 1012.6
20260510142345 75 190 1.0 4.0 0.00 0.44 0.01 1 1012.7
20260510141846 75 190 2.0 5.0 0.00 0.44 0.01 1 1012.8
20260510141344 75 190 2.0 6.0 0.00 0.44 0.01 1 1012.8
20260510140854 75 190 2.0 6.0 0.00 0.44 0.01 1 1012.8
20260510140346 74 190 2.0 5.0 0.00 0.44 0.01 1 1012.7
20260510135844 74 190 2.0 6.0 0.00 0.45 0.01 1 1012.6
20260510135339 74 190 2.0 6.0 0.00 0.45 0.01 1 1012.5
20260510134838 74 190 1.0 4.0 0.00 0.45 0.01 1 1012.4
20260510133835 74 190 1.0 4.0 0.00 0.45 0.01 1 1012.2
20260510132833 73 190 0.0 0.0 0.00 0.45 0.01 1 1012.1
20260510132333 73 190 0.0 0.0 0.00 0.45 0.01 1 1011.9
20260510131830 73 190 0.0 0.0 0.01 0.45 0.01 1 1011.7
20260510131327 72 190 0.0 0.0 0.01 0.45 0.01 1 1011.6
20260510130826 72 190 0.0 0.0 0.01 0.45 0.01 1 1011.7
20260510130556 72 190 0.0 0.0 0.01 0.45 0.01 1 1011.7
20260510125825 71 190 0.0 0.0 0.01 0.45 0.01 1 1011.5
20260510125323 71 190 0.0 0.0 0.01 0.45 0.01 1 1011.4
20260510124822 71 190 0.0 0.0 0.01 0.45 0.01 1 1011.3
20260510124317 71 190 0.0 0.0 0.01 0.45 0.01 1 1011.3
20260510123815 70 190 0.0 0.0 0.01 0.45 0.01 1 1011.2
20260510123312 70 190 0.0 0.0 0.01 0.45 0.01 1 1011.0
20260510122810 70 190 0.0 0.0 0.01 0.45 0.01 1 1011.0
20260510122541 70 190 0.0 0.0 0.01 0.45 0.01 1 1010.9
20260510121804 69 190 0.0 0.0 0.00 0.44 0.00 1 1010.7
20260510121302 69 190 0.0 0.0 0.00 0.44 0.00 1 1010.5
20260510120800 69 190 0.0 0.0 0.00 0.44 0.00 1 1010.4
20260510120258 69 190 0.0 0.0 0.00 0.44 0.00 1 1010.5
20260510115758 69 190 0.0 0.0 0.00 0.44 0.00 1 1010.5
20260510115252 69 190 0.0 0.0 0.00 0.44 0.00 1 1010.4
20260510114750 69 190 0.0 0.0 0.00 0.44 0.00 1 1010.4
20260510114250 69 190 0.0 0.0 0.00 0.44 0.00 1 1010.2
20260510113747 69 190 0.0 0.0 0.00 0.44 0.00 1 1010.1
20260510113246 69 190 0.0 0.0 0.00 0.44 0.00 1 1010.0
20260510112238 69 190 0.0 0.0 0.00 0.44 0.00 1 1009.7
20260510111736 69 190 0.0 0.0 0.00 0.44 0.00 1 1009.6
20260510111236 69 190 0.0 0.0 0.00 0.44 0.00 1 1009.4
20260510110734 69 190 0.0 0.0 0.00 0.44 0.00 1 1009.2
20260510110231 69 190 0.0 3.0 0.00 0.44 0.00 1 1009.1
20260510105729 69 190 0.0 3.0 0.00 0.44 0.00 1 1009.0
20260510105001 69 190 0.0 0.0 0.00 0.44 0.00 1 1008.9
20260510104228 69 190 0.0 0.0 0.00 0.44 0.00 1 1009.0
20260510103959 69 190 0.0 0.0 0.00 0.44 0.00 1 1008.9
20260510103222 69 190 0.0 0.0 0.00 0.44 0.00 1 1008.9
20260510102720 69 190 0.0 0.0 0.00 0.44 0.00 1 1008.8
20260510102451 69 190 0.0 0.0 0.00 0.44 0.00 1 1008.8
20260510101717 69 190 0.0 0.0 0.00 0.44 0.00 1 1008.9
20260510101216 69 190 0.0 0.0 0.00 0.44 0.00 1 1008.9
20260510100710 69 190 0.0 0.0 0.00 0.44 0.00 1 1008.9
20260510100209 69 190 0.0 0.0 0.00 0.44 0.00 1 1008.9
20260510095706 70 190 0.0 0.0 0.00 0.44 0.00 1 1008.9
20260510095211 70 190 0.0 0.0 0.00 0.44 0.00 1 1008.9
20260510094704 70 190 0.0 0.0 0.00 0.44 0.00 1 1008.9
20260510094433 70 190 0.0 0.0 0.00 0.44 0.00 1 1008.8
20260510093700 70 190 0.0 0.0 0.00 0.44 0.00 1 1008.8
20260510093200 70 190 0.0 0.0 0.00 0.44 0.00 1 1008.8
20260510092702 70 190 0.0 0.0 0.00 0.44 0.00 1 1008.7
20260510092159 70 190 0.0 3.0 0.00 0.44 0.00 1 1008.6
20260510091658 70 190 0.0 3.0 0.00 0.44 0.00 1 1008.5
20260510091151 70 190 0.0 3.0 0.00 0.44 0.00 1 1008.6
20260510090653 70 190 0.0 1.0 0.00 0.44 0.00 1 1008.7
20260510090151 70 190 0.0 1.0 0.00 0.44 0.00 1 1008.7
20260510085923 70 190 0.0 2.0 0.00 0.44 0.00 1 1008.8
20260510085152 70 190 0.0 2.0 0.00 0.44 0.00 1 1008.7
20260510084653 70 190 0.0 1.0 0.00 0.44 0.00 1 1008.8
20260510084152 71 190 0.0 2.0 0.00 0.44 0.00 1 1008.9
20260510083919 71 190 0.0 2.0 0.00 0.44 0.00 1 1008.8
20260510083150 71 190 0.0 2.0 0.00 0.44 0.00 1 1008.9
20260510082649 71 190 0.0 2.0 0.00 0.44 0.00 1 1008.9
20260510082418 71 190 1.0 5.0 0.00 0.44 0.00 1 1008.8
20260510081648 71 190 2.0 5.0 0.00 0.44 0.00 1 1008.8
20260510081144 71 190 2.0 4.0 0.00 0.44 0.00 1 1008.9
20260510080646 71 190 2.0 4.0 0.00 0.44 0.00 1 1008.9
20260510080141 71 190 1.0 4.0 0.00 0.44 0.00 1 1008.9
20260510075636 71 190 1.0 3.0 0.00 0.44 0.00 1 1008.9
20260510075409 71 190 1.0 4.0 0.00 0.44 0.00 1 1009.0
20260510074638 71 190 0.0 4.0 0.00 0.44 0.00 1 1009.0
20260510074138 71 190 0.0 1.0 0.00 0.44 0.00 1 1009.0
20260510073638 71 190 1.0 4.0 0.00 0.44 0.00 1 1009.1
20260510073133 71 190 1.0 4.0 0.00 0.44 0.00 1 1009.1
20260510072633 71 190 1.0 4.0 0.00 0.44 0.00 1 1009.1
20260510072134 71 190 1.0 4.0 0.00 0.44 0.00 1 1009.1
20260510071631 71 190 0.0 3.0 0.00 0.44 0.00 1 1009.0
20260510071130 71 190 1.0 4.0 0.00 0.44 0.00 1 1009.0
20260510070629 71 190 1.0 4.0 0.00 0.44 0.00 1 1009.0
20260510070129 71 190 1.0 4.0 0.00 0.44 0.00 1 1009.0
20260510065630 71 190 1.0 4.0 0.00 0.44 0.00 1 1009.1
20260510065125 71 190 0.0 4.0 0.00 0.44 0.00 1 1009.1
20260510064625 71 190 0.0 2.0 0.00 0.44 0.00 1 1009.1
20260510064126 71 190 0.0 0.0 0.00 0.44 0.00 1 1009.1
20260510063626 71 190 1.0 3.0 0.00 0.44 0.00 1 1009.1
20260510063124 71 190 1.0 3.0 0.00 0.44 0.00 1 1009.2
20260510062627 71 190 0.0 3.0 0.00 0.44 0.00 1 1009.3
20260510062121 71 190 0.0 0.0 0.00 0.44 0.00 1 1009.2
20260510061620 71 190 0.0 2.0 0.00 0.44 0.00 1 1009.2
20260510061121 71 190 0.0 2.0 0.00 0.44 0.00 1 1009.2
20260510060623 71 190 0.0 2.0 0.00 0.44 0.00 1 1009.3
20260510060121 71 190 0.0 3.0 0.00 0.44 0.00 1 1009.3
20260510055630 71 190 1.0 4.0 0.00 0.44 0.00 1 1009.3
20260510055117 71 190 1.0 4.0 0.00 0.44 0.00 1 1009.3
20260510054618 71 190 0.0 3.0 0.00 0.44 0.00 1 1009.2
20260510054118 71 190 0.0 3.0 0.00 0.44 0.00 1 1009.2
20260510053852 71 190 0.0 0.0 0.00 0.44 0.00 1 1009.4
20260510053117 71 190 0.0 0.0 0.00 0.44 0.00 1 1009.4
20260510052619 72 190 0.0 2.0 0.00 0.44 0.00 1 1009.4
20260510052345 72 190 0.0 2.0 0.00 0.44 0.00 1 1009.4
20260510051613 72 190 0.0 2.0 0.00 0.44 0.00 1 1009.2
20260510051106 71 190 0.0 2.0 0.00 0.44 0.00 1 1009.1
20260510050604 71 190 0.0 4.0 0.00 0.44 0.00 1 1009.1
20260510050337 71 190 0.0 4.0 0.00 0.44 0.00 1 1009.2
20260510045608 71 190 1.0 3.0 0.00 0.44 0.44 1 1009.0
20260510045055 71 190 1.0 3.0 0.00 0.44 0.44 1 1009.1
20260510044553 71 190 1.0 3.0 0.00 0.44 0.44 1 1009.1
20260510044054 70 190 1.0 3.0 0.00 0.44 0.44 1 1009.1
20260510043825 70 190 2.0 5.0 0.00 0.44 0.44 1 1009.2
20260510043057 70 190 3.0 6.0 0.00 0.44 0.44 1 1009.2
20260510042556 70 190 3.0 6.0 0.00 0.44 0.44 1 1009.3
20260510042050 70 190 2.0 6.0 0.00 0.44 0.44 1 1009.1
20260510041549 69 190 1.0 5.0 0.00 0.44 0.44 1 1009.1
20260510041327 69 190 0.0 0.0 0.00 0.44 0.44 1 1008.9
20260510040823 69 190 0.0 0.0 0.00 0.44 0.44 1 1008.9
20260510040045 69 190 0.0 0.0 0.00 0.44 0.44 1 1008.7
20260510035546 70 190 0.0 0.0 0.00 0.44 0.44 1 1008.7
20260510035039 70 190 0.0 0.0 0.00 0.44 0.44 1 1008.7
20260510034812 70 190 0.0 0.0 0.00 0.44 0.44 1 1008.6
20260510033543 70 190 0.0 0.0 0.00 0.44 0.44 1 1008.6
20260510033034 70 190 0.0 0.0 0.00 0.44 0.44 1 1008.6
20260510032532 70 190 0.0 0.0 0.00 0.44 0.44 1 1008.5
20260510032306 70 190 0.0 0.0 0.00 0.44 0.44 1 1008.4
20260510031534 70 190 0.0 1.0 0.00 0.44 0.44 1 1008.3
20260510031033 70 190 1.0 4.0 0.00 0.44 0.44 1 1008.3
20260510030529 70 190 1.0 4.0 0.00 0.44 0.44 1 1008.2
20260510030034 70 190 1.0 4.0 0.00 0.44 0.44 1 1008.2
20260510025528 70 190 2.0 6.0 0.00 0.44 0.44 1 1008.1
20260510025026 70 190 1.0 6.0 0.00 0.44 0.44 1 1008.0
20260510024526 70 190 0.0 2.0 0.00 0.44 0.44 1 1007.8
20260510024030 70 190 0.0 0.0 0.00 0.44 0.44 1 1007.8
20260510023532 70 190 0.0 0.0 0.00 0.44 0.44 1 1007.7
20260510023022 70 190 0.0 0.0 0.00 0.44 0.44 1 1007.7
20260510022521 70 190 0.0 0.0 0.00 0.44 0.44 1 1007.6
20260510022248 70 190 0.0 0.0 0.00 0.44 0.44 1 1007.5
20260510021519 70 190 0.0 0.0 0.00 0.44 0.44 1 1007.5
20260510021005 70 190 0.0 0.0 0.00 0.44 0.44 1 1007.4
20260510020505 70 190 0.0 0.0 0.00 0.44 0.44 1 1007.4
20260510020007 71 190 0.0 0.0 0.00 0.44 0.44 1 1007.3
20260510015506 71 190 0.0 0.0 0.00 0.44 0.44 1 1007.3
20260510015005 71 190 0.0 0.0 0.00 0.44 0.44 1 1007.3
20260510014507 71 190 0.0 0.0 0.00 0.44 0.44 1 1007.2
20260510014003 71 190 0.0 0.0 0.00 0.44 0.44 1 1007.2
20260510013510 71 190 0.0 0.0 0.00 0.44 0.44 1 1007.1
20260510013004 70 190 0.0 0.0 0.00 0.44 0.44 1 1007.0
20260510012504 70 190 0.0 0.0 0.00 0.44 0.44 1 1006.9
20260510012007 71 190 0.0 0.0 0.00 0.44 0.44 1 1006.9
20260510011456 71 190 0.0 0.0 0.00 0.44 0.44 1 1006.8
20260510010957 71 190 0.0 0.0 0.00 0.44 0.44 1 1006.8
20260510010729 72 190 0.0 0.0 0.00 0.44 0.44 1 1006.7
20260510010230 71 190 0.0 0.0 0.00 0.44 0.44 1 1006.6
20260510005459 72 190 0.0 3.0 0.00 0.44 0.44 1 1006.5
20260510005002 73 190 0.0 3.0 0.00 0.44 0.44 1 1006.5
20260510004458 73 190 0.0 0.0 0.00 0.44 0.44 1 1006.4
20260510003957 73 190 0.0 0.0 0.00 0.44 0.44 1 1006.4
20260510003458 73 190 0.0 0.0 0.00 0.44 0.44 1 1006.3
20260510003228 72 190 0.0 0.0 0.00 0.44 0.44 1 1006.4
20260510003000 72 190 0.0 0.0 0.00 0.44 0.44 1 1006.4
20260510002456 73 190 1.0 3.0 0.02 0.44 0.44 1 1006.4
20260510001958 72 190 1.0 3.0 0.03 0.44 0.44 1 1006.4
20260510001724 72 190 1.0 3.0 0.09 0.44 0.44 1 1006.2
20260510000953 72 190 2.0 5.0 0.15 0.44 0.44 1 1006.2
20260510000725 72 190 2.0 5.0 0.20 0.44 0.44 1 1006.0
20260509235448 71 190 0.0 0.0 0.27 0.44 0.44 1 1005.9
20260509234950 71 190 0.0 0.0 0.35 0.44 0.44 1 1006.0
20260509234450 70 190 0.0 1.0 0.38 0.44 0.44 1 1006.1
20260509233942 70 190 1.0 5.0 0.42 0.44 0.44 1 1006.1
20260509233441 69 190 3.0 6.0 0.43 0.44 0.44 1 1006.2
20260509232947 69 190 2.0 6.0 0.43 0.44 0.44 1 1006.4
20260509232445 70 190 3.0 9.0 0.41 0.42 0.42 1 1006.5
20260509231948 69 190 6.0 14.0 0.40 0.41 0.41 1 1006.5
20260509231444 69 190 10.0 20.0 0.34 0.35 0.36 1 1006.5
20260509230937 69 190 13.0 30.0 0.27 0.28 0.29 1 1006.6
20260509230437 69 190 10.0 30.0 0.23 0.24 0.24 1 1006.9
20260509225934 69 190 7.0 12.0 0.19 0.20 0.21 1 1007.0
20260509225435 70 190 7.0 13.0 0.15 0.16 0.17 68 1006.8
20260509224935 74 190 7.0 13.0 0.06 0.07 0.08 68 1006.7
20260509224439 77 190 7.0 13.0 0.05 0.06 0.06 65 1006.5
20260509223927 79 190 7.0 13.0 0.01 0.02 0.02 62 1006.3
20260509223427 80 190 9.0 16.0 0.00 0.01 0.01 60 1006.1
20260509222929 81 190 8.0 18.0 0.00 0.01 0.01 60 1006.1
20260509222428 84 190 4.0 18.0 0.00 0.01 0.01 57 1005.8
20260509222206 87 190 1.0 9.0 0.00 0.01 0.01 60 1005.9
20260509221659 87 190 1.0 4.0 0.00 0.01 0.01 63 1005.6
20260509220922 87 190 1.0 4.0 0.00 0.01 0.01 62 1005.4
20260509220422 88 190 0.0 3.0 0.00 0.01 0.01 62 1005.5
20260509215928 88 190 0.0 3.0 0.00 0.01 0.01 63 1005.5
20260509215422 88 190 0.0 3.0 0.00 0.01 0.01 63 1005.3
20260509214920 88 190 0.0 3.0 0.00 0.01 0.01 63 1005.3
20260509213918 88 190 1.0 5.0 0.00 0.01 0.01 63 1005.7
20260509213413 89 190 2.0 6.0 0.00 0.01 0.01 62 1005.6
20260509212911 89 190 2.0 6.0 0.00 0.01 0.01 62 1005.7
20260509212412 89 190 1.0 6.0 0.00 0.01 0.01 63 1005.8
20260509211914 88 190 0.0 3.0 0.00 0.01 0.01 63 1005.9
20260509211413 88 190 0.0 1.0 0.00 0.01 0.01 63 1005.9
20260509210904 88 190 0.0 2.0 0.00 0.01 0.01 63 1006.0
20260509210404 88 190 0.0 2.0 0.00 0.01 0.01 62 1005.9
20260509205901 88 190 0.0 5.0 0.00 0.01 0.01 61 1005.9
20260509205400 88 190 1.0 5.0 0.00 0.01 0.01 61 1006.0
20260509205131 89 190 0.0 4.0 0.00 0.01 0.01 63 1006.0
20260509204353 89 190 0.0 3.0 0.00 0.01 0.01 62 1006.2
20260509203855 89 190 0.0 2.0 0.00 0.01 0.01 61 1006.2
20260509203351 89 190 0.0 0.0 0.00 0.01 0.01 61 1006.4
20260509202847 89 190 0.0 0.0 0.00 0.01 0.01 61 1006.5
20260509202359 89 190 0.0 0.0 0.00 0.01 0.01 63 1006.5
20260509201840 88 190 0.0 3.0 0.00 0.01 0.01 63 1006.6
20260509201341 87 190 1.0 3.0 0.00 0.01 0.01 63 1006.6
20260509200844 87 190 1.0 6.0 0.00 0.01 0.01 63 1006.6
20260509200345 87 190 2.0 6.0 0.00 0.01 0.01 63 1006.6
20260509195842 88 190 1.0 6.0 0.00 0.01 0.01 62 1006.6
20260509195341 89 190 1.0 6.0 0.00 0.01 0.01 61 1006.6
20260509194839 89 190 2.0 6.0 0.00 0.01 0.01 62 1006.6
20260509194341 89 190 2.0 6.0 0.00 0.01 0.01 61 1006.7
20260509193840 89 190 1.0 4.0 0.00 0.01 0.01 61 1006.8
20260509193337 88 190 0.0 0.0 0.00 0.01 0.01 62 1006.9
20260509192837 87 190 0.0 0.0 0.00 0.01 0.01 63 1006.9
20260509192335 86 190 0.0 2.0 0.00 0.01 0.01 63 1007.0
20260509191835 86 190 0.0 2.0 0.00 0.01 0.01 63 1007.0
20260509191558 87 190 0.0 2.0 0.00 0.01 0.01 63 1007.1
20260509190829 87 190 0.0 2.0 0.00 0.01 0.01 63 1007.2
20260509190324 87 190 0.0 2.0 0.00 0.01 0.01 63 1007.3
20260509185826 88 190 0.0 2.0 0.00 0.01 0.01 62 1007.3
20260509185323 88 190 0.0 2.0 0.00 0.01 0.01 62 1007.4
20260509184815 87 190 0.0 2.0 0.00 0.01 0.01 62 1007.4
20260509184313 87 190 1.0 6.0 0.00 0.01 0.01 63 1007.5
20260509183812 86 190 1.0 6.0 0.00 0.01 0.01 62 1007.6
20260509183551 87 190 1.0 5.0 0.00 0.01 0.01 62 1007.6
20260509182807 87 190 2.0 5.0 0.00 0.01 0.01 62 1007.7
20260509182309 87 190 2.0 5.0 0.00 0.01 0.01 62 1007.7
20260509181804 87 190 1.0 5.0 0.00 0.01 0.01 62 1007.8
20260509181302 87 190 1.0 4.0 0.00 0.01 0.01 62 1007.9
20260509180804 85 190 1.0 4.0 0.00 0.01 0.01 62 1008.0
20260509180301 85 190 2.0 5.0 0.00 0.01 0.01 62 1008.1
20260509175800 86 190 2.0 5.0 0.00 0.01 0.01 62 1008.2
20260509175259 86 190 2.0 5.0 0.00 0.01 0.01 62 1008.3
20260509174801 86 190 1.0 5.0 0.00 0.01 0.01 62 1008.3